Date String (YYYY-MM-DD hh:mm:ss) UTC,Instrument flags,Ambient pressure (hPa),Sample flow (lpm),Bypass flow (lpm),Sample temperature (°C),Ambient temperature (°C),ASC tube jacket temperature (°C),LED temperature (°C),Box temperature (°C),Sample RH (%),Span deviation,Mass concentration (μg/m³),Mass concentration (μg/m³),Mass concentration (μg/m³)
DateTimeUTC,F1_M11,P_M11,Q1_M11,Q2_M11,T1_M11,T2_M11,T3_M11,T4_M11,T5_M11,U1_M11,ZSPAN_M11,X2_M11,X0_M11,X1_M11
2022-05-04 01:00:00,,0818.4,4.99,0.00,26.7,25.9,00.0,35.6,28.6,22.3,-002.5,0008.12,0013.16,0007.68
2022-05-04 01:01:00,,0818.3,5.01,0.00,26.7,25.9,00.0,35.6,28.6,22.3,-002.6,0008.09,0012.89,0007.65
2022-05-04 01:02:00,,0818.4,5.00,0.00,26.7,25.9,00.0,35.6,28.6,22.6,-002.5,0008.06,0012.81,0007.63
2022-05-04 01:03:00,,0818.4,5.01,0.00,26.7,25.9,00.0,35.6,28.5,22.7,-002.6,0008.06,0012.91,0007.61
2022-05-04 01:04:00,,0818.4,4.99,0.00,26.7,25.9,00.0,35.6,28.5,22.7,-002.8,0008.02,0012.84,0007.56
2022-05-04 01:05:00,,0818.4,5.00,0.00,26.7,25.8,00.0,35.6,28.6,22.7,-002.9,0007.99,0012.75,0007.53
2022-05-04 01:06:00,,0818.4,5.01,0.00,26.7,25.9,00.0,35.6,28.6,22.6,-002.9,0007.97,0011.98,0007.50
2022-05-04 01:07:00,,0818.4,4.98,0.00,26.7,25.8,00.0,35.6,28.6,22.4,-002.7,0007.96,0011.88,0007.48
2022-05-04 01:08:00,,0818.4,5.00,0.00,26.7,25.8,00.0,35.6,28.6,22.5,-002.7,0007.93,0011.86,0007.45
2022-05-04 01:09:00,,0818.4,5.01,0.00,26.7,25.9,00.0,35.6,28.6,22.5,-002.7,0007.91,0011.68,0007.45
2022-05-04 01:10:00,,0818.4,5.01,0.00,26.7,25.8,00.0,35.6,28.6,22.5,-002.7,0007.91,0011.58,0007.45
2022-05-04 01:11:00,,0818.5,5.00,0.00,26.7,25.8,00.0,35.6,28.6,22.4,-002.6,0007.93,0011.58,0007.45
2022-05-04 01:12:00,,0818.6,5.00,0.00,26.7,25.8,00.0,35.6,28.5,22.5,-002.5,0007.90,0011.52,0007.43
2022-05-04 01:13:00,,0818.7,5.00,0.00,26.7,25.8,00.0,35.6,28.5,22.5,-002.6,0007.87,0011.47,0007.39
2022-05-04 01:14:00,,0818.7,5.00,0.00,26.7,25.8,00.0,35.6,28.5,22.6,-002.6,0007.85,0011.50,0007.35
2022-05-04 01:15:00,,0818.7,4.99,0.00,26.7,25.8,00.0,35.6,28.5,22.3,-002.4,0007.85,0011.54,0007.32
2022-05-04 01:16:00,,0818.6,5.00,0.00,26.7,25.8,00.0,35.6,28.5,22.0,-002.4,0007.80,0011.72,0007.27
2022-05-04 01:17:00,,0818.5,5.01,0.00,26.7,25.8,00.0,35.6,28.5,21.8,-002.5,0007.75,0012.80,0007.22
2022-05-04 01:18:00,,0818.5,4.99,0.00,26.7,25.8,00.0,35.6,28.5,21.7,-002.9,0007.71,0012.91,0007.17
2022-05-04 01:19:00,,0818.5,4.99,0.00,26.7,25.8,00.0,35.6,28.5,21.8,-002.8,0007.66,0012.79,0007.13
2022-05-04 01:20:00,,0818.5,5.01,0.00,26.7,25.8,00.0,35.6,28.5,22.0,-002.7,0007.61,0012.91,0007.08
2022-05-04 01:21:00,,0818.5,5.01,0.00,26.7,25.8,00.0,35.6,28.5,22.2,-002.7,0007.57,0013.00,0007.03
2022-05-04 01:22:00,,0818.5,4.99,0.00,26.7,25.8,00.0,35.6,28.5,22.0,-002.9,0007.46,0012.81,0006.97
2022-05-04 01:23:00,,0818.5,4.99,0.00,26.7,25.8,00.0,35.6,28.5,22.0,-003.1,0007.41,0012.65,0006.94
2022-05-04 01:24:00,,0818.5,5.01,0.00,26.6,25.7,00.0,35.6,28.5,22.2,-003.2,0007.36,0012.63,0006.91
2022-05-04 01:25:00,,0818.4,5.01,0.00,26.6,25.7,00.0,35.6,28.4,22.2,-003.2,0007.28,0013.08,0006.87
2022-05-04 01:26:00,,0818.6,4.99,0.00,26.6,25.7,00.0,35.6,28.4,22.1,-003.3,0007.24,0012.95,0006.86
2022-05-04 01:27:00,,0818.8,5.01,0.00,26.6,25.7,00.0,35.6,28.5,22.3,-003.2,0007.21,0012.71,0006.85
2022-05-04 01:28:00,,0818.8,4.99,0.00,26.6,25.8,00.0,35.6,28.5,22.3,-003.1,0007.24,0012.59,0006.85
2022-05-04 01:29:00,,0818.8,4.99,0.00,26.6,25.8,00.0,35.6,28.5,22.4,-002.9,0007.22,0012.43,0006.84
2022-05-04 01:30:00,,0818.8,5.01,0.00,26.6,25.8,00.0,35.6,28.5,22.3,-002.8,0007.21,0012.37,0006.84
2022-05-04 01:31:00,,0818.7,5.00,0.00,26.7,25.8,00.0,35.6,28.5,22.4,-003.0,0007.20,0012.17,0006.84
2022-05-04 01:32:00,,0818.7,4.99,0.00,26.7,25.8,00.0,35.6,28.5,22.5,-003.1,0007.19,0012.20,0006.84
2022-05-04 01:33:00,,0818.8,5.01,0.00,26.7,25.8,00.0,35.6,28.5,22.4,-002.9,0007.21,0012.74,0006.85
2022-05-04 01:34:00,,0818.7,4.99,0.00,26.7,25.8,00.0,35.6,28.5,22.6,-003.1,0007.24,0012.99,0006.85
2022-05-04 01:35:00,,0818.5,5.00,0.00,26.7,25.8,00.0,35.6,28.5,22.5,-002.8,0007.24,0012.92,0006.84
2022-05-04 01:36:00,,0818.4,5.00,0.00,26.7,25.8,00.0,35.6,28.5,22.5,-002.8,0007.25,0012.31,0006.85
2022-05-04 01:37:00,,0818.4,5.01,0.00,26.7,25.9,00.0,35.6,28.6,22.5,-003.0,0007.25,0012.62,0006.84
2022-05-04 01:38:00,,0818.6,5.00,0.00,26.7,25.9,00.0,35.6,28.6,22.4,-003.0,0007.25,0013.43,0006.83
2022-05-04 01:39:00,,0818.8,4.99,0.00,26.7,25.9,00.0,35.6,28.6,22.5,-003.0,0007.20,0012.34,0006.82
2022-05-04 01:40:00,,0818.8,5.01,0.00,26.7,25.9,00.0,35.6,28.6,22.7,-003.0,0007.19,0012.20,0006.80
2022-05-04 01:41:00,,0818.8,5.00,0.00,26.7,25.9,00.0,35.6,28.6,22.9,-003.0,0007.20,0012.29,0006.77
2022-05-04 01:42:00,,0818.8,4.99,0.00,26.7,25.9,00.0,35.6,28.5,22.9,-003.0,0007.20,0012.52,0006.74
2022-05-04 01:43:00,,0818.9,5.01,0.00,26.7,25.9,00.0,35.6,28.5,22.9,-003.0,0007.20,0012.57,0006.72
2022-05-04 01:44:00,,0818.9,5.01,0.00,26.7,25.8,00.0,35.6,28.5,22.9,-003.1,0007.23,0012.14,0006.72
2022-05-04 01:45:00,,0819.0,5.01,0.00,26.7,25.8,00.0,35.6,28.5,22.9,-002.8,0007.21,0012.35,0006.71
2022-05-04 01:46:00,,0818.9,4.99,0.00,26.7,25.8,00.0,35.6,28.5,22.7,-002.9,0007.21,0012.36,0006.70
2022-05-04 01:47:00,,0818.9,5.00,0.00,26.7,25.8,00.0,35.6,28.5,22.6,-003.0,0007.20,0012.34,0006.69
2022-05-04 01:48:00,,0818.9,5.01,0.00,26.7,25.8,00.0,35.6,28.5,22.6,-002.7,0007.18,0012.72,0006.68
2022-05-04 01:49:00,,0818.9,4.99,0.00,26.7,25.9,00.0,35.6,28.5,22.6,-002.6,0007.17,0011.83,0006.67
2022-05-04 01:50:00,,0819.0,5.00,0.00,26.7,25.9,00.0,35.6,28.6,22.5,-002.6,0007.18,0012.03,0006.66
2022-05-04 01:51:00,,0819.0,5.00,0.00,26.7,25.9,00.0,35.6,28.6,22.4,-002.6,0007.16,0012.10,0006.66
2022-05-04 01:52:00,,0819.0,5.01,0.00,26.7,25.9,00.0,35.6,28.6,22.6,-002.6,0007.13,0012.01,0006.66
2022-05-04 01:53:00,,0818.9,4.99,0.00,26.7,25.9,00.0,35.6,28.6,22.8,-002.4,0007.10,0011.78,0006.66
2022-05-04 01:54:00,,0819.0,5.00,0.00,26.7,25.9,00.0,35.6,28.6,22.8,-002.4,0007.10,0011.79,0006.65
2022-05-04 01:55:00,,0818.9,5.01,0.00,26.7,25.9,00.0,35.6,28.5,22.7,-002.7,0007.06,0011.58,0006.64
2022-05-04 01:56:00,,0818.9,5.00,0.00,26.7,25.9,00.0,35.6,28.5,22.7,-002.8,0007.05,0011.25,0006.63
2022-05-04 01:57:00,,0818.9,5.00,0.00,26.7,25.8,00.0,35.6,28.5,22.5,-002.7,0007.06,0011.14,0006.64
2022-05-04 01:58:00,,0819.0,5.00,0.00,26.7,25.9,00.0,35.6,28.5,22.4,-002.7,0007.08,0011.17,0006.64
2022-05-04 01:59:00,,0818.9,4.99,0.00,26.7,25.9,00.0,35.6,28.5,22.5,-002.8,0007.12,0010.86,0006.64
